Weather Roundup
Issued by NWS

Home | Current Version | Previous Version | Text Only | Print | Product List | Glossary On
Versions: 1 2 3 4 5 6 7 8 9 10 11 12 13 14 15 16 17 18 19 20 21 22 23 24 25 26 27 28 29 30 31 32 33 34 35 36 37 38 39 40 41 42 43 44 45 46 47 48 49 50
000
NZUS93 KARX 240659
HRRWXR

CURRENT HOURLY OBSERVATIONS ACROSS
MUCH OF THE UPPER MISSISSIPPI VALLEY
NATIONAL WEATHER SERVICE LA CROSSE WI
200 AM CDT WED AUG 24 2016


...SOUTHEAST MINNESOTA...


CITY           SKY/WX    TMP DP  RH WIND       PRES   REMARKS
ROCHESTER      CLOUDY    66  65  96 SE12      29.86S
ROCHESTER/MAYO PTSUNNY   66  66 100 SE14      29.86S
WINONA         LGT RAIN  70  66  88 S9        29.85F
AUSTIN         CLOUDY    66  63  88 S5        29.84F
ALBERT LEA     MOCLDY    68  66  94 S8        29.83F
DODGE CENTER   CLOUDY    66  64  94 S8        29.84S
PRESTON        CLOUDY    65  63  92 SE13      29.89S
OWATONNA       CLOUDY    70  64  83 S5        29.82S
FARIBAULT      CLOUDY    66  66 100 N3        29.83S
$$

...ELSEWHERE IN MINNESOTA...


CITY           SKY/WX    TMP DP  RH WIND       PRES   REMARKS
MINNEAPOLIS    LGT RAIN  68  66  93 SW3       29.82S FOG
INTNL FALLS    MOCLDY    71  68  90 VRB5      29.77S
DULUTH         CLOUDY    68  64  87 S8        29.84F
RED WING       LGT RAIN  70  66  88 S5        29.82F
REDWOOD FALLS  LGT RAIN  67  65  93 SE5       29.80F
MANKATO        CLOUDY    66  63  88 S5        29.81F
WORTHINGTON    CLOUDY    70  68  93 SW7       29.82F
FAIRMONT         N/A    N/A N/A N/A MISG        N/A
$$

...SOUTHWEST WISCONSIN...


CITY           SKY/WX    TMP DP  RH WIND       PRES   REMARKS
LA CROSSE      TSTM      68  32  26 S14       29.87F
PRAIRIE DU CHI CLOUDY    69  67  95 E5        29.91F
BOSCOBEL       TSTM      68  67  96 SW6       29.93F FOG
LONE ROCK      CLOUDY    72  68  87 S13G22    29.93F
PLATTEVILLE    CLOUDY    72  71  96 S20       29.97R
FORT MC COY    RAIN      65  65  98 SW6       29.91F
MAUSTON-NEW LI RAIN      68  67  98 SE3       29.94F
VIROQUA        CLOUDY    65  65 100 SE3       29.95R
WIS DELLS      NOT AVBL
$$

...ELSEWHERE IN WISCONSIN...


CITY           SKY/WX    TMP DP  RH WIND       PRES   REMARKS
MILWAUKEE      CLOUDY    75  63  66 S13       30.02F
MADISON        CLOUDY    71  68  90 S14       29.97S
GREEN BAY      CLOUDY    69  64  84 S10       29.95F
EAU CLAIRE     CLOUDY    68  67  96 S13       29.81F
BLACK RVR FLS  HVY RAIN  67  67 100 S5        29.87R
MEDFORD        LGT RAIN  65  65 100 SE9G16    29.89F
WAUSAU         RAIN      65  64  97 SE12      29.89F FOG
WIS RAPIDS     LGT RAIN  67  67 100 S9        29.91F FOG
MARSHFIELD     LGT RAIN  68  65  90 S6        29.90R
RICE LAKE      RAIN      67  64  93 SE6       29.88S
$$

...NORTHEAST IOWA...


CITY           SKY/WX    TMP DP  RH WIND       PRES   REMARKS
WATERLOO       CLOUDY    74  70  87 S14       29.87F
DUBUQUE        CLOUDY    71  68  90 S18G25    29.97S
DECORAH        HVY RAIN  64  64 100 E7        29.91F
MASON CITY     CLOUDY    72  70  93 S3        29.88F
CHARLES CITY   CLOUDY    70  70 100 E10       29.89F
OELWEIN        CLOUDY    73  72  94 S18G24    29.91F
$$

...ELSEWHERE IN IOWA...


CITY           SKY/WX    TMP DP  RH WIND       PRES   REMARKS
DES MOINES     TSTM      78  73  84 S10       29.87R
IOWA CITY      CLOUDY    73  70  90 S9        29.97S
FORT DODGE     CLOUDY    75  72  88 S9        29.84F
MARSHALLTOWN   CLOUDY    75  73  93 S13       29.88F
CEDAR RAPIDS   CLOUDY    73  72  96 S12       29.93F
$$

...NORTHERN ILLINOIS...


CITY           SKY/WX    TMP DP  RH WIND       PRES   REMARKS
CHICAGO-OHARE  CLOUDY    73  63  70 S16       30.06F
CHICAGO-MIDWAY CLOUDY    75  62  64 S14       30.07F
MOLINE         CLOUDY    73  68  84 S13       29.99S
ROCKFORD       CLOUDY    72  66  81 S14       30.03F
PEORIA         CLOUDY    71  69  93 S12       30.04F
$$

NOTE: "FAIR" INDICATES FEW OR NO CLOUDS BELOW 12,000 FEET WITH NO
SIGNIFICANT WEATHER AND/OR OBSTRUCTIONS TO VISIBILITY. WIND
SPEEDS ARE IN MILES-PER-HOUR.




USA.gov is the U.S. government's official web portal to all federal, state and local government web resources and services.